[Date Prev][Date Next][Thread Prev][Thread Next] - [Date Index][Thread Index][Author Index]

2 Line ISS Keps 12-20



ISS
1 25544U 98067A   03354.05542829  .00011400  00000-0  11587-3 0  9148
2 25544  51.6283 162.0679 0005731 270.4797 190.2599 15.65699486290061


----
Via the sarex mailing list at AMSAT.ORG courtesy of AMSAT-NA.
To unsubscribe, send "unsubscribe sarex" to Majordomo@amsat.org



AMSAT Top AMSAT Home